This is the latest recevied weather packets stored in our database for station/object W8XLR-2. If no packets are shown the sender has not sent any weather packets the latest 10 day(s).
| Time | Temp. | Humidity | Pressure | Rain* | Wind** | Luminosity | Snow |
|---|---|---|---|---|---|---|---|
| 1777753670 | 6.67° C | 67% | 1018.5 hPa | 0 mm | - | - | - |
| 1777753608 | 6.67° C | 67% | 1018.5 hPa | 0 mm | - | - | - |
| 1777753010 | 6.67° C | 67% | 1018.5 hPa | 0 mm | - | - | - |
| 1777752409 | 6.11° C | 66% | 1018.7 hPa | 0 mm | - | - | - |
| 1777751808 | 5.56° C | 67% | 1018.7 hPa | 0 mm | - | - | - |
| 1777751249 | 5.56° C | 67% | 1018.7 hPa | 0 mm | - | - | - |
| 1777751209 | 5.56° C | 67% | 1018.7 hPa | 0 mm | - | - | - |
| 1777750608 | 6.11° C | 67% | 1019 hPa | 0 mm | - | - | - |
| 1777750008 | 6.11° C | 67% | 1019 hPa | 0 mm | - | - | - |
| 1777749408 | 6.11° C | 67% | 1019 hPa | 0 mm | - | - | - |
| 1777748809 | 6.11° C | 69% | 1019.3 hPa | 0 mm | - | - | - |
| 1777748209 | 5.56° C | 74% | 1019.3 hPa | 0 mm | - | - | - |
| 1777747610 | 5.56° C | 74% | 1019.3 hPa | 0 mm | - | - | - |
| 1777747014 | 5° C | 73% | 1019.3 hPa | 0 mm | - | - | - |
| 1777746486 | 4.44° C | 76% | 1019.5 hPa | 0 mm | - | - | - |
| 1777746412 | 4.44° C | 76% | 1019.5 hPa | 0 mm | - | - | - |
| 1777745810 | 4.44° C | 76% | 1019.5 hPa | 0 mm | - | - | - |
| 1777745209 | 3.89° C | 80% | 1019.7 hPa | 0 mm | - | - | - |
| 1777744608 | 3.89° C | 84% | 1019.6 hPa | 0 mm | - | - | - |
| 1777744017 | 3.89° C | 84% | 1019.6 hPa | 0 mm | - | - | - |
| 1777743409 | 3.33° C | 85% | 1019.4 hPa | 0 mm | - | - | - |
| 1777742808 | 3.33° C | 88% | 1019.4 hPa | 0 mm | - | - | - |
| 1777742285 | 3.33° C | 88% | 1019.4 hPa | 0 mm | - | - | - |
| 1777742254 | 3.33° C | 88% | 1019.4 hPa | 0 mm | - | - | - |
| 1777742216 | 3.33° C | 88% | 1019.4 hPa | 0 mm | - | - | - |
* Rain latest hour (hover to see other rain measurements)
** Current wind speed in m/s (hover to see current wind gust speed)